Orbital Elements at Epoch 2459200.5 (2020-Dec-17.0) TDB
Reference: JPL 26 (heliocentric ecliptic J2000)
Element | Value | Uncertainty (1-sigma) | Units |
e | .2721171402761525 | 3.1821e-08 | |
a | 2.328126971518944 | 7.4433e-09 | au |
q | 1.694603717829429 | 7.3167e-08 | au |
i | 10.77522842449452 | 3.6134e-06 | deg |
node | 139.1097083724068 | 1.5635e-05 | deg |
peri | 181.3573605464519 | 1.6944e-05 | deg |
M | 176.408737555405 | 6.1655e-06 | deg |
tp | 2458564.691965849904 (2019-Mar-22.19196585) | 2.0715e-05 | TDB |
period | 1297.503147893376 3.55 | 6.2224e-06 1.704e-08 | d yr |
n | .2774559742567834 | 1.3306e-09 | deg/d |
Q | 2.961650225208459 | 9.4687e-09 | au |
|
| | Orbit Determination Parameters
Additional Information
|